When you browse on this site, cookies collect data to enhance your experience and personalize the content and advertising you see.
Visit our Privacy Policy to learn more. By continuing to use the site, you agree to this use of cookies and data.
  • In Hungary
  • List of Countries
  • For 7 days
  • Water Temperature
  • Weather Map
  • News
  • Weather Widgets
  • user-avatar
    Login

    Hourly Weather Blansko

    Today, 25 August, Sunday

    Time Temperature Precipitation Wind Pressure Humidity
    00:00 +19°C° 0.3 mm 2 mps 736 mmHg 90%
    01:00 +19°C° 0.3 mm 2 mps 736 mmHg 91%
    02:00 +19°C° 0 mm 2 mps 736 mmHg 91%
    03:00 +20°C° 0 mm 1 mps 736 mmHg 91%
    04:00 +19°C° 0 mm 1 mps 736 mmHg 92%
    05:00 +20°C° 0 mm 1 mps 736 mmHg 89%
    06:00 +21°C° 0 mm 1 mps 736 mmHg 87%
    07:00 +22°C° 0 mm 1 mps 736 mmHg 85%
    08:00 +24°C° 0 mm 2 mps 736 mmHg 77%
    09:00 +25°C° 0 mm 2 mps 736 mmHg 69%
    10:00 +27°C° 0 mm 2 mps 737 mmHg 61%
    11:00 +28°C° 0.1 mm 2 mps 737 mmHg 57%
    12:00 +29°C° 0.1 mm 3 mps 736 mmHg 53%
    13:00 +31°C° 0.1 mm 3 mps 736 mmHg 49%
    14:00 +31°C° 0.4 mm 3 mps 736 mmHg 48%
    15:00 +31°C° 0.4 mm 2 mps 736 mmHg 48%
    16:00 +31°C° 0.4 mm 2 mps 736 mmHg 47%
    17:00 +29°C° 0.4 mm 2 mps 736 mmHg 55%
    18:00 +27°C° 0.4 mm 2 mps 735 mmHg 64%
    19:00 +25°C° 0.4 mm 3 mps 735 mmHg 72%
    20:00 +23°C° 0.5 mm 2 mps 735 mmHg 77%
    21:00 +21°C° 0.5 mm 2 mps 736 mmHg 83%
    22:00 +21°C° 0.5 mm 1 mps 736 mmHg 89%
    23:00 +21°C° 0.1 mm 1 mps 736 mmHg 88%

    Tomorrow, 26 August, Monday

    Time Temperature Precipitation Wind Pressure Humidity
    00:00 +21°C° 0.1 mm 1 mps 736 mmHg 88%
    01:00 +20°C° 0.1 mm 1 mps 736 mmHg 88%
    02:00 +20°C° 0 mm 1 mps 735 mmHg 88%
    03:00 +20°C° 0 mm 1 mps 735 mmHg 88%
    04:00 +20°C° 0 mm 1 mps 735 mmHg 88%
    05:00 +21°C° 0.1 mm 1 mps 735 mmHg 85%
    06:00 +21°C° 0.1 mm 1 mps 735 mmHg 83%
    07:00 +22°C° 0.1 mm 1 mps 735 mmHg 80%
    08:00 +24°C° 0 mm 1 mps 735 mmHg 73%
    09:00 +26°C° 0 mm 1 mps 736 mmHg 66%
    10:00 +28°C° 0 mm 1 mps 736 mmHg 58%
    11:00 +29°C° 0 mm 2 mps 736 mmHg 54%
    12:00 +30°C° 0 mm 2 mps 736 mmHg 50%
    13:00 +31°C° 0 mm 2 mps 735 mmHg 46%
    14:00 +31°C° 0.1 mm 3 mps 735 mmHg 46%
    15:00 +31°C° 0.1 mm 3 mps 735 mmHg 46%
    16:00 +31°C° 0.1 mm 3 mps 734 mmHg 46%
    17:00 +29°C° 0.1 mm 2 mps 734 mmHg 53%
    18:00 +27°C° 0.1 mm 2 mps 734 mmHg 60%
    19:00 +25°C° 0.1 mm 1 mps 734 mmHg 67%
    20:00 +24°C° 0.7 mm 1 mps 734 mmHg 71%
    21:00 +23°C° 0.7 mm 1 mps 734 mmHg 75%
    22:00 +22°C° 0.7 mm 1 mps 734 mmHg 79%
    23:00 +22°C° 0.5 mm 1 mps 734 mmHg 82%

    Day after tomorrow, 27 August, Tuesday

    Time Temperature Precipitation Wind Pressure Humidity
    00:00 +22°C° 0.5 mm 1 mps 734 mmHg 84%
    01:00 +21°C° 0.5 mm 1 mps 734 mmHg 87%
    02:00 +21°C° 0.7 mm 1 mps 734 mmHg 88%
    03:00 +21°C° 0.7 mm 1 mps 734 mmHg 88%
    04:00 +21°C° 0.7 mm 1 mps 734 mmHg 89%
    05:00 +22°C° 0.3 mm 1 mps 734 mmHg 87%
    06:00 +22°C° 0.3 mm 1 mps 734 mmHg 85%
    07:00 +23°C° 0.3 mm 1 mps 734 mmHg 82%
    08:00 +25°C° 0 mm 1 mps 735 mmHg 75%
    09:00 +26°C° 0 mm 2 mps 735 mmHg 68%
    10:00 +28°C° 0 mm 2 mps 735 mmHg 61%
    11:00 +29°C° 0 mm 3 mps 735 mmHg 57%
    12:00 +30°C° 0 mm 3 mps 735 mmHg 52%
    13:00 +32°C° 0 mm 4 mps 735 mmHg 48%
    14:00 +31°C° 0 mm 3 mps 735 mmHg 48%
    15:00 +31°C° 0 mm 3 mps 735 mmHg 49%
    16:00 +31°C° 0 mm 3 mps 734 mmHg 49%
    17:00 +29°C° 0 mm 3 mps 734 mmHg 55%
    18:00 +27°C° 0 mm 2 mps 734 mmHg 62%
    19:00 +25°C° 0 mm 2 mps 734 mmHg 68%
    20:00 +25°C° 0 mm 1 mps 734 mmHg 70%
    21:00 +24°C° 0 mm 1 mps 734 mmHg 72%
    22:00 +23°C° 0 mm 1 mps 734 mmHg 74%
    23:00 +23°C° 0 mm 1 mps 734 mmHg 75%

    28 August, Wednesday

    Time Temperature Precipitation Wind Pressure Humidity
    00:00 +22°C° 0 mm 1 mps 734 mmHg 77%
    01:00 +22°C° 0 mm 1 mps 734 mmHg 79%
    02:00 +22°C° 0 mm 1 mps 734 mmHg 80%
    03:00 +21°C° 0 mm 1 mps 734 mmHg 81%
    04:00 +21°C° 0 mm 1 mps 734 mmHg 83%
    05:00 +22°C° 0 mm 1 mps 734 mmHg 80%
    06:00 +23°C° 0 mm 1 mps 734 mmHg 77%
    07:00 +24°C° 0 mm 1 mps 734 mmHg 74%
    08:00 +25°C° 0 mm 2 mps 734 mmHg 67%
    09:00 +27°C° 0 mm 3 mps 734 mmHg 61%
    10:00 +29°C° 0 mm 4 mps 734 mmHg 54%
    11:00 +30°C° 0 mm 4 mps 734 mmHg 51%
    12:00 +32°C° 0 mm 4 mps 733 mmHg 47%
    13:00 +33°C° 0 mm 5 mps 733 mmHg 44%
    14:00 +33°C° 0 mm 4 mps 733 mmHg 44%
    15:00 +33°C° 0 mm 4 mps 733 mmHg 43%
    16:00 +33°C° 0 mm 4 mps 732 mmHg 43%
    17:00 +30°C° 0 mm 3 mps 732 mmHg 49%
    18:00 +28°C° 0 mm 2 mps 732 mmHg 55%
    19:00 +26°C° 0 mm 2 mps 731 mmHg 60%
    20:00 +25°C° 0.1 mm 2 mps 732 mmHg 63%
    21:00 +24°C° 0.1 mm 2 mps 732 mmHg 66%
    22:00 +23°C° 0.1 mm 1 mps 732 mmHg 68%
    23:00 +23°C° 0 mm 1 mps 732 mmHg 70%

    29 August, Thursday

    Time Temperature Precipitation Wind Pressure Humidity
    00:00 +22°C° 0 mm 1 mps 731 mmHg 71%
    01:00 +21°C° 0 mm 2 mps 731 mmHg 72%
    02:00 +21°C° 0 mm 1 mps 731 mmHg 74%
    03:00 +21°C° 0 mm 1 mps 731 mmHg 75%
    04:00 +21°C° 0 mm 1 mps 731 mmHg 76%
    05:00 +21°C° 0 mm 1 mps 731 mmHg 74%
    06:00 +22°C° 0 mm 1 mps 731 mmHg 71%
    07:00 +23°C° 0 mm 1 mps 731 mmHg 68%
    08:00 +25°C° 0 mm 2 mps 731 mmHg 62%
    09:00 +27°C° 0 mm 3 mps 732 mmHg 55%
    10:00 +28°C° 0 mm 3 mps 732 mmHg 48%
    11:00 +29°C° 0 mm 4 mps 732 mmHg 45%
    12:00 +30°C° 0 mm 4 mps 732 mmHg 42%
    13:00 +32°C° 0 mm 4 mps 732 mmHg 38%
    14:00 +32°C° 0.1 mm 4 mps 732 mmHg 40%
    15:00 +31°C° 0.1 mm 3 mps 732 mmHg 42%
    16:00 +30°C° 0.1 mm 3 mps 732 mmHg 44%
    17:00 +29°C° 0 mm 2 mps 732 mmHg 49%
    18:00 +27°C° 0 mm 2 mps 732 mmHg 55%
    19:00 +25°C° 0 mm 1 mps 732 mmHg 60%
    20:00 +25°C° 0.1 mm 1 mps 732 mmHg 61%
    21:00 +24°C° 0.1 mm 1 mps 732 mmHg 62%
    22:00 +24°C° 0.1 mm 1 mps 733 mmHg 62%
    23:00 +23°C° 0.2 mm 1 mps 733 mmHg 66%

    30 August, Friday

    Time Temperature Precipitation Wind Pressure Humidity
    00:00 +23°C° 0.2 mm 1 mps 733 mmHg 70%
    01:00 +22°C° 0.2 mm 1 mps 733 mmHg 74%
    02:00 +22°C° 0.2 mm 1 mps 733 mmHg 79%
    03:00 +21°C° 0.2 mm 1 mps 733 mmHg 84%
    04:00 +20°C° 0.2 mm 1 mps 733 mmHg 88%
    05:00 +21°C° 0.3 mm 1 mps 734 mmHg 88%
    06:00 +21°C° 0.3 mm 1 mps 734 mmHg 88%
    07:00 +21°C° 0.3 mm 1 mps 734 mmHg 88%
    08:00 +21°C° 0.1 mm 1 mps 734 mmHg 87%
    09:00 +21°C° 0.1 mm 2 mps 735 mmHg 86%
    10:00 +21°C° 0.1 mm 2 mps 735 mmHg 86%
    11:00 +23°C° 0.2 mm 2 mps 735 mmHg 83%
    12:00 +23°C° 0.2 mm 2 mps 735 mmHg 81%
    13:00 +24°C° 0.2 mm 2 mps 735 mmHg 79%
    14:00 +24°C° 0.3 mm 2 mps 735 mmHg 77%
    15:00 +24°C° 0.3 mm 1 mps 735 mmHg 76%
    16:00 +25°C° 0.3 mm 1 mps 735 mmHg 75%
    17:00 +24°C° 0.4 mm 1 mps 735 mmHg 79%
    18:00 +23°C° 0.4 mm 1 mps 735 mmHg 83%
    19:00 +22°C° 0.4 mm 1 mps 735 mmHg 87%
    20:00 +21°C° 0.3 mm 1 mps 735 mmHg 89%
    21:00 +20°C° 0.3 mm 1 mps 735 mmHg 91%
    22:00 +20°C° 0.3 mm 1 mps 735 mmHg 93%
    23:00 +20°C° 0 mm 1 mps 735 mmHg 93%
    Show more